Location: Kapla
(46.2483°N, 15.0094°E)
Time: 18:32:10
(UTC+00:00)

Cosmos 968 Rocket - Pass Details

Date: 03 March 2021
Orbit: 740 x 771 km, 74.0° (Epoch: 15 April)

Event Time Altitude Azimuth Distance (km) Brightness Sun altitude
Rises 17:48:56 0° 335° (NNW) 3,249 7.1 -11.1°
Reaches altitude 10° 17:51:20 10° 332° (NNW) 2,321 6.4 -11.5°
Maximum altitude 17:56:31 61° 253° (WSW) 873 4.1 -12.4°
Drops below altitude 10° 18:01:41 10° 174° (S) 2,308 5.9 -13.3°
Sets 18:04:04 0° 171° (S) 3,229 6.6 -13.7°
